Kremmling, CO

4:42 AM MDT on April 27, 2017 (GMT -0600)
Kremmling

Weather History for K20V - December, 2013

Change the Weather History Date:

Wednesday, December 4, 2013

  Actual Average Record
Temperature  
Mean Temperature 2 °F -  
Max Temperature 19 °F - 48 °F (2007)
Min Temperature -16 °F - -20 °F (2004)
Degree Days  
Heating Degree Days 64    
Month to date heating degree days  
Cooling Degree Days 0    
Month to date cooling degree days  
Moisture  
Dew Point -1 °F    
Average Humidity 72    
Maximum Humidity 86    
Minimum Humidity 56    
Precipitation  
Precipitation 0.01 in - 0.01 in (2013)
Sea Level Pressure  
Sea Level Pressure 29.64 in    
Wind  
Wind Speed 10 mph (NNW)    
Max Wind Speed 28 mph    
Max Gust Speed 40 mph    
Visibility 4 miles    
Events Snow    
T = Trace of Precipitation, MM = Missing Value Source: NWS Daily Summary

Daily Weather History Graph

Daily Weather History Graph

Search for Another Location

Airport or City:

Trip Planner

Search our weather history database for the weather conditions in past years. The results will help you decide how hot, cold, wet, or windy it might be!

Date:

Astronomy

Dec. 04, 2013 Rise Set
Actual Time 7:11 AM MST 4:40 PM MST
Civil Twilight 6:41 AM MST 5:10 PM MST
Nautical Twilight 6:07 AM MST 5:44 PM MST
Astronomical Twilight 5:34 AM MST 6:16 PM MST
Moon 8:42 AM MST (12/4) 6:53 PM MST (12/4)
Length of Visible Light 10h 29m
Length of Day
9h 28m
Waxing Crescent, 5% of the Moon is Illuminated
Dec 4
Waxing Crescent
Dec 9
First Quarter
Dec 17
Full
Dec 25
Last Quarter
Jan 1
New

Hourly Weather History & Observations

Time (MST) Temp. Windchill Dew Point Humidity Pressure Visibility Wind Dir Wind Speed Gust Speed Precip Events Conditions
12:15 AM 19.4 °F 5.5 °F 14.0 °F 80% 29.42 in 1.8 mi NNW 15.0 mph 21.9 mph N/A Snow Light Snow
12:35 AM 19.4 °F 9.5 °F 14.0 °F 80% 29.40 in 1.8 mi North 8.1 mph 18.4 mph N/A Snow Light Snow
12:55 AM 19.4 °F 10.4 °F 14.0 °F 80% 29.39 in 2.5 mi North 6.9 mph 16.1 mph N/A Snow Light Snow
1:15 AM 19.4 °F 10.4 °F 15.8 °F 86% 29.38 in 1.2 mi North 6.9 mph - 0.01 in Snow Light Snow
1:35 AM 19.4 °F 7.9 °F 15.8 °F 86% 29.38 in 1.0 mi North 10.4 mph 18.4 mph 0.01 in Snow Snow
1:55 AM 19.4 °F 7.9 °F 14.0 °F 80% 29.38 in 1.2 mi NW 10.4 mph 18.4 mph 0.01 in Snow Light Snow
2:15 AM 17.6 °F 1.7 °F 12.2 °F 79% 29.38 in 1.2 mi NNW 18.4 mph 27.6 mph N/A Snow Light Snow
2:34 AM 17.6 °F 3.2 °F 12.2 °F 79% 29.41 in 0.8 mi NNW 15.0 mph 24.2 mph N/A Snow Snow
2:55 AM 14.0 °F -2.5 °F 10.4 °F 86% 29.42 in 0.5 mi NNW 17.3 mph 32.2 mph N/A Snow Snow
3:15 AM 12.2 °F -6.3 °F 8.6 °F 85% 29.43 in 0.5 mi NNW 20.7 mph 36.8 mph N/A Snow Snow
3:35 AM 12.2 °F -5.8 °F 5.0 °F 73% 29.42 in 0.5 mi NNW 19.6 mph 33.4 mph N/A Snow Snow
3:55 AM 10.4 °F -9.5 °F 5.0 °F 79% 29.43 in 0.5 mi NNW 23.0 mph 31.1 mph N/A Snow Snow
4:15 AM 10.4 °F -11.0 °F 5.0 °F 79% 29.44 in 0.5 mi NNW 27.6 mph 39.1 mph N/A Snow Heavy Snow
4:34 AM 10.4 °F -11.0 °F 5.0 °F 79% 29.45 in 0.2 mi NNW 27.6 mph 40.3 mph N/A Snow Heavy Snow
4:55 AM 8.6 °F -11.4 °F 1.4 °F 73% 29.48 in 0.5 mi NNW 21.9 mph 32.2 mph N/A Snow Snow
5:15 AM 8.6 °F -8.3 °F 1.4 °F 73% 29.48 in 0.8 mi NNW 15.0 mph 31.1 mph N/A Snow Light Snow
5:35 AM 8.6 °F -7.7 °F 1.4 °F 73% 29.50 in 1.2 mi NNW 13.8 mph 21.9 mph N/A Snow Light Snow
5:55 AM 8.6 °F -8.3 °F 1.4 °F 73% 29.52 in 1.2 mi NNW 15.0 mph 26.5 mph N/A Snow Light Snow
6:15 AM 8.6 °F -10.5 °F 1.4 °F 73% 29.53 in 1.2 mi NNW 19.6 mph 33.4 mph N/A Snow Light Snow
6:34 AM 8.6 °F -9.5 °F 1.4 °F 73% 29.54 in 1.2 mi NNW 17.3 mph 23.0 mph N/A Snow Light Snow
6:55 AM 8.6 °F -7.0 °F 1.4 °F 73% 29.55 in 1.8 mi NNW 12.7 mph 25.3 mph N/A Snow Light Snow
7:15 AM 8.6 °F -5.5 °F 1.4 °F 73% 29.55 in 0.8 mi NNW 10.4 mph 20.7 mph N/A Snow Light Snow
7:35 AM 8.6 °F -1.3 °F 1.4 °F 73% 29.59 in 0.8 mi NNE 5.8 mph 16.1 mph N/A Snow Light Snow
7:55 AM 8.6 °F -6.3 °F 1.4 °F 73% 29.57 in 0.5 mi NNW 11.5 mph 19.6 mph N/A Snow Light Snow
8:14 AM 8.6 °F -7.0 °F 1.4 °F 73% 29.58 in 0.5 mi NNW 12.7 mph 18.4 mph N/A Snow Snow
8:35 AM 6.8 °F -10.0 °F 1.4 °F 79% 29.59 in 1.0 mi NW 13.8 mph 17.3 mph N/A Snow Light Snow
8:55 AM 8.6 °F -7.0 °F 1.4 °F 73% 29.58 in 1.0 mi NNW 12.7 mph - N/A Snow Light Snow
9:15 AM 8.6 °F -7.7 °F 1.4 °F 73% 29.59 in 1.2 mi North 13.8 mph - N/A Snow Light Snow
9:35 AM 8.6 °F -3.7 °F 1.4 °F 73% 29.61 in 1.5 mi North 8.1 mph - N/A Snow Light Snow
9:55 AM 8.6 °F -4.7 °F -0.4 °F 67% 29.61 in 1.5 mi NNW 9.2 mph 17.3 mph N/A Snow Light Snow
10:15 AM 10.4 °F 2.2 °F 3.2 °F 73% 29.62 in 1.0 mi ENE 4.6 mph - N/A Snow Light Snow
10:35 AM 8.6 °F -4.7 °F -0.4 °F 67% 29.60 in 1.2 mi NNW 9.2 mph 16.1 mph N/A Snow Light Snow
10:55 AM 10.4 °F -1.5 °F 1.4 °F 67% 29.61 in 1.2 mi NNW 8.1 mph - N/A Snow Light Snow
11:15 AM 10.4 °F -2.4 °F 1.4 °F 67% 29.61 in 2.5 mi NNW 9.2 mph - N/A Snow Light Snow
11:35 AM 10.4 °F -1.5 °F 1.4 °F 67% 29.61 in 1.8 mi NNW 8.1 mph - N/A Snow Light Snow
11:55 AM 10.4 °F -3.3 °F 1.4 °F 67% 29.61 in 1.8 mi NNW 10.4 mph - N/A Snow Light Snow
12:15 PM 10.4 °F -1.5 °F 1.4 °F 67% 29.63 in 1.5 mi NNW 8.1 mph - N/A Snow Light Snow
12:35 PM 10.4 °F 2.2 °F 3.2 °F 73% 29.63 in 1.2 mi NW 4.6 mph - N/A Snow Light Snow
12:55 PM 10.4 °F -1.5 °F 1.4 °F 67% 29.63 in 1.2 mi NNW 8.1 mph - N/A Snow Light Snow
1:14 PM 10.4 °F 0.8 °F 1.4 °F 67% 29.65 in 1.2 mi North 5.8 mph - N/A Snow Light Snow
1:35 PM 10.4 °F 2.2 °F 1.4 °F 67% 29.63 in 2.0 mi NNW 4.6 mph - N/A Snow Light Snow
1:55 PM 10.4 °F 4.0 °F 1.4 °F 67% 29.63 in 1.2 mi NNW 3.5 mph - N/A Snow Light Snow
2:15 PM 10.4 °F - 3.2 °F 73% 29.63 in 1.5 mi Calm Calm - N/A Snow Light Snow
2:35 PM 10.4 °F 4.0 °F 3.2 °F 73% 29.66 in 4.0 mi SSE 3.5 mph - N/A Snow Light Snow
2:55 PM 10.4 °F - 3.2 °F 73% 29.66 in 10.0 mi Calm Calm - N/A   Overcast
3:14 PM 10.4 °F - 3.2 °F 73% 29.66 in 10.0 mi Calm Calm - N/A   Overcast
3:35 PM 10.4 °F - 1.4 °F 67% 29.68 in 10.0 mi Calm Calm - N/A   Overcast
3:55 PM 10.4 °F - 1.4 °F 67% 29.69 in 10.0 mi Calm Calm - N/A   Overcast
4:15 PM 10.4 °F 4.0 °F 3.2 °F 73% 29.71 in 4.0 mi West 3.5 mph - N/A Snow Light Snow
4:35 PM 10.4 °F - 3.2 °F 73% 29.73 in 1.8 mi Calm Calm - N/A Snow Light Snow
4:55 PM 10.4 °F 0.8 °F 3.2 °F 73% 29.74 in 2.5 mi NNW 5.8 mph - N/A Snow Light Snow
5:15 PM 8.6 °F 0.1 °F -2.2 °F 62% 29.75 in 5.0 mi NNW 4.6 mph - N/A   Haze
5:35 PM 8.6 °F -5.5 °F -4.0 °F 57% 29.76 in 5.0 mi NNW 10.4 mph - N/A Snow Light Snow
5:55 PM 6.8 °F -6.9 °F -4.0 °F 61% 29.78 in 7.0 mi NNW 9.2 mph - N/A   Overcast
6:15 PM 5.0 °F -6.9 °F -5.8 °F 61% 29.78 in 7.0 mi NNW 6.9 mph - N/A   Overcast
6:35 PM 5.0 °F -5.6 °F -5.8 °F 61% 29.80 in 10.0 mi NNW 5.8 mph - N/A   Overcast
6:55 PM 5.0 °F - -7.6 °F 56% 29.82 in 10.0 mi Calm Calm - N/A   Overcast
7:15 PM 3.2 °F - -7.6 °F 61% 29.83 in 10.0 mi Calm Calm - N/A   Overcast
7:35 PM 3.2 °F -6.2 °F -7.6 °F 61% 29.84 in 10.0 mi NNW 4.6 mph - N/A   Overcast
7:55 PM 1.4 °F - -9.4 °F 61% 29.85 in 10.0 mi Calm Calm - N/A   Mostly Cloudy
8:15 PM -0.4 °F - -9.4 °F 66% 29.86 in 10.0 mi Calm Calm - N/A   Scattered Clouds
8:35 PM -5.8 °F - -14.8 °F 65% 29.86 in 10.0 mi Calm Calm - N/A   Scattered Clouds
8:55 PM -5.8 °F - -13.0 °F 71% 29.87 in 10.0 mi Calm Calm - N/A   Scattered Clouds
9:15 PM -7.6 °F - -14.8 °F 71% 29.87 in 10.0 mi Calm Calm - N/A   Clear
9:35 PM -7.6 °F - -13.0 °F 77% 29.88 in 10.0 mi Calm Calm - N/A   Clear
9:55 PM -11.2 °F - -18.4 °F 70% 29.89 in 10.0 mi Calm Calm - N/A   Clear
10:15 PM -9.4 °F - -14.8 °F 77% 29.89 in 10.0 mi Calm Calm - N/A   Clear
10:35 PM -9.4 °F - -16.6 °F 71% 29.90 in 10.0 mi Calm Calm - N/A   Clear
10:55 PM -11.2 °F - -16.6 °F 77% 29.90 in 10.0 mi Calm Calm - N/A   Clear
11:15 PM -16.6 °F - -22.0 °F 76% 29.90 in 10.0 mi Calm Calm - N/A   Clear
11:35 PM -16.6 °F - -23.8 °F 70% 29.90 in 10.0 mi Calm Calm - N/A   Clear
11:55 PM -16.6 °F - -22.0 °F 76% 29.90 in 10.0 mi Calm Calm - N/A   Clear